Flag for Germany Weather past 2 weeks in Werl, North Rhine-Westphalia, Germany

Now
75 °F

Passing clouds.


Feels Like: 78 °F
Forecast: 59 / 71 °F
Wind: 14 mph from Northeast

Location: Dortmund / Wickede

Current Time: Jul 24, 2014 at 6:08:19 PM

Latest Report: Jul 24, 2014 at 5:20 PM


Visibility: N/A

Pressure: 29.98 "Hg

Humidity: 41%

Dew point: 50 °F

Location of WerlLocation

Historic Weather in Werl — Graph

°F

Werl temperature yesterday

Maximum temperature yesterday: 81 °F (at 2:50 PM)
Minimum temperature yesterday: 63 °F (at 5:50 AM)
Average temperature yesterday: 75 °F

Past Weeks' High & Low Weather Summary

 TemperatureHumidityPressure
High90 °F (Jul 19, 1:20 PM)100% (Jul 10, 5:20 AM)30.18 "Hg (Jul 10, 5:20 AM)
Low55 °F (Jul 15, 5:20 AM)22% (Jul 19, 2:50 PM)29.65 "Hg (Jul 9, 4:20 PM)
Average71 °F66%29.96 "Hg
* Reported Jul 9 4:20 PM — Jul 24 4:50 PM, Werl, Weather by CustomWeather, © 2014

Note: Actual official high and low records may vary slightly from our data, if they occured in-between our weather recording intervals... More about our weather records

Advertising

Werl weather history for previous 24 hours

 ConditionsComfort  
Time TempWeatherWind HumidityBarometerVisibility
4:50 PM
Jul 24
77 °FPassing clouds.10 mph47%29.98 "HgN/A
4:20 PM73 °FPassing clouds.13 mph50%29.98 "HgN/A
3:50 PM75 °FPassing clouds.14 mph44%29.98 "HgN/A
3:20 PM77 °FPassing clouds.15 mph39%29.98 "HgN/A
2:50 PM77 °FPassing clouds.10 mph42%29.98 "HgN/A
2:20 PM77 °FPassing clouds.12 mph42%29.98 "HgN/A
1:50 PM77 °FPassing clouds.13 mph42%29.98 "HgN/A
1:20 PM75 °FPassing clouds.12 mph44%29.98 "HgN/A
12:50 PM75 °FPassing clouds.13 mph47%29.98 "HgN/A
12:20 PM75 °FPassing clouds.12 mph47%30.01 "HgN/A
11:50 AM73 °FPassing clouds.12 mph50%30.01 "HgN/A
11:20 AM72 °FPassing clouds.9 mph57%30.01 "HgN/A
10:50 AM70 °FPassing clouds.8 mph60%30.01 "HgN/A
10:20 AM68 °FPassing clouds.10 mph60%30.01 "HgN/A
9:50 AM68 °FPassing clouds.8 mph64%30.01 "HgN/A
9:20 AM66 °FPassing clouds.8 mph68%30.01 "HgN/A
8:50 AM66 °FPassing clouds.7 mph68%30.01 "HgN/A
8:20 AM64 °FPassing clouds.7 mph73%30.01 "HgN/A
7:50 AM64 °FPassing clouds.5 mph73%30.01 "HgN/A
7:20 AM63 °FSunny.3 mph77%30.01 "Hg10 mi
6:50 AM61 °FSunny.2 mph83%30.01 "Hg10 mi
6:20 AM59 °FClear.2 mph82%30.01 "Hg10 mi
5:50 AM59 °FClear.2 mph82%30.01 "Hg10 mi
5:20 AM59 °FClear.3 mph82%30.01 "Hg10 mi
10:50 PM
Jul 23
70 °FClear.5 mph60%30.04 "Hg10 mi
10:20 PM72 °FSunny.5 mph61%30.04 "Hg10 mi
9:50 PM73 °FSunny.5 mph57%30.04 "Hg10 mi
9:20 PM75 °FSunny.6 mph54%30.01 "Hg10 mi
8:50 PM77 °FPassing clouds.6 mph51%30.01 "HgN/A
8:20 PM77 °FPassing clouds.7 mph51%30.01 "HgN/A
7:50 PM79 °FPassing clouds.8 mph48%30.01 "HgN/A
7:20 PM79 °FSunny.12 mph48%30.01 "Hg10 mi
6:50 PM81 °FPassing clouds.8 mph45%30.01 "HgN/A
6:20 PM81 °FPassing clouds.12 mph48%30.01 "HgN/A
Weather by CustomWeather, © 2014

See weather overviewHow to use our weather pages